Terug naar catalogus

COSMOS 1719

ActiefMilitairLEO
NORAD 16452·PAYLOAD·🇷🇺 Russia

Gelanceerd Jan 9, 1986 vanaf Plesetsk Cosmodrome

Loading…

Volgende Passages (komende 24 uur)

TLE

VersSource: Space-Track

Epoch: Sep 14, 2026, 20:07 UTC

1 16452U 86002D   26257.83850139 -.00000013  00000-0  20668-4 0  9994
2 16452  73.9886 209.2464 0019480 237.3713 149.9475 12.48881313854708

Volg COSMOS 1719 in realtime met AllMySat

Download on the App Store